Location: Binningen
(47.7924°N, 8.7261°E)
Time: 14:40:35
(UTC+00:00)

Terra - Pass Details

Date: 01 October 2021
Orbit: 701 x 703 km, 98.2° (Epoch: 28 October)

Event Time Altitude Azimuth Distance (km) Brightness Sun altitude
Exits shadow 20:53:01 16° 358° (N) 1,813 4.3 -36.3°
Drops below altitude 10° 20:53:58 10° 355° (N) 2,182 4.8 -36.4°
Sets 20:56:16 0° 351° (N) 3,104 5.8 -36.7°
